Stations météo

réclame
Mon MeteoGroup
Gourette, France (7775): Température de l'air & dewpoint: 12.06.2018 13:00:00 - 18.06.2018 13:00:00 (CEST)Gourette, France (7775): Vitesse du vent & gusts: 12.06.2018 13:00:00 - 18.06.2018 13:00:00 (CEST)Gourette, France (7775): Direction du vent: 12.06.2018 13:00:00 - 18.06.2018 13:00:00 (CEST)Gourette, France (7775): reduced air pressure: 12.06.2018 13:00:00 - 18.06.2018 13:00:00 (CEST)Gourette, France (7775): visibility: 12.06.2018 13:00:00 - 18.06.2018 13:00:00 (CEST)Gourette, France (7775): Quantités de précipitations: 12.06.2018 13:00:00 - 18.06.2018 13:00:00 (CEST)
Date & Time tt [°C] td [°C] ff [km/h] ff [knt] fx [km/h] fx [knt] dd ppp [hPa] vv [km] rr [mm]
18.06.2018 13:00:00 28,6 20,9 22 12 34 18 NNE 1015,4 - 0,0
18.06.2018 12:00:00 27,7 21,0 24 13 37 20 N 1015,5 - 0,0
18.06.2018 11:00:00 27,2 21,0 22 12 34 18 NNE 1015,0 - 0,0
18.06.2018 10:00:00 27,5 20,8 18 10 25 14 NNE 1014,8 - 0,0
18.06.2018 09:00:00 24,5 18,4 13 7 22 12 N 1014,8 - 0,0
18.06.2018 08:00:00 23,2 20,5 11 6 20 11 NNE 1014,7 - 0,0
18.06.2018 07:00:00 20,6 18,0 10 5 14 8 NNW 1014,3 - 0,0
18.06.2018 06:00:00 20,5 17,9 9 5 12 7 N 1014,1 - 0,0
18.06.2018 05:00:00 21,3 17,9 7 4 11 6 NNW 1013,7 20 0,0
18.06.2018 04:00:00 21,2 18,0 2 1 8 4 SSW 1013,5 - 0,0
18.06.2018 03:00:00 21,0 18,2 8 4 11 6 SW 1014,0 - 0,0
18.06.2018 02:00:00 21,3 18,1 6 3 8 4 WSW 1014,4 - 0,0
18.06.2018 01:00:00 21,0 17,6 5 3 10 5 WSW 1014,8 - 0,0
18.06.2018 00:00:00 21,8 18,0 5 3 13 7 NNW 1014,7 - 0,0
17.06.2018 23:00:00 21,3 17,1 9 5 13 7 N 1014,4 - 0,0
17.06.2018 22:00:00 21,5 18,1 10 5 14 7 N 1014,1 - 0,0
17.06.2018 21:00:00 22,9 18,0 11 6 16 9 N 1013,8 - 0,0
17.06.2018 20:00:00 25,3 16,2 5 3 11 6 NNE 1013,5 20 -
17.06.2018 19:00:00 25,9 14,7 6 4 14 8 E 1013,2 - 0,0
17.06.2018 18:00:00 27,1 16,4 8 4 16 9 E 1013,2 - 0,0
17.06.2018 17:00:00 27,2 15,2 9 5 18 10 ESE 1013,6 20 0,0
17.06.2018 16:00:00 27,6 18,0 11 6 18 10 ESE 1013,9 - 0,0
17.06.2018 15:00:00 27,2 19,3 8 4 18 10 ESE 1014,2 - 0,0
17.06.2018 14:00:00 26,5 19,9 9 5 21 11 E 1014,6 - -
17.06.2018 13:00:00 26,6 17,9 9 5 16 9 ESE 1014,7 - 0,0
17.06.2018 12:00:00 26,4 19,0 9 5 16 9 ESE 1014,6 - 0,0
17.06.2018 11:00:00 25,1 19,0 9 5 18 10 E 1014,6 18 0,0
17.06.2018 10:00:00 26,4 19,3 13 7 21 12 NNE 1014,3 - 0,0
17.06.2018 09:00:00 24,4 18,3 10 5 19 10 NNE 1014,3 - 0,0
17.06.2018 08:00:00 22,2 14,8 11 6 18 10 N 1014,0 20 -
17.06.2018 07:00:00 20,4 11,1 15 8 21 11 N 1013,4 - 0,0
17.06.2018 06:00:00 20,7 13,2 7 4 10 5 NNE 1013,0 - 0,0
17.06.2018 05:00:00 20,9 13,6 5 3 9 5 E 1013,0 20 0,0
17.06.2018 04:00:00 21,3 13,7 7 4 14 7 SW 1013,1 - 0,0
17.06.2018 03:00:00 20,5 14,6 10 5 11 6 SW 1013,2 - 0,0
17.06.2018 02:00:00 20,7 13,6 5 3 9 5 SSW 1013,2 - -
17.06.2018 01:00:00 21,3 13,5 9 5 15 8 NNW 1013,4 - 0,0
17.06.2018 00:00:00 22,3 12,3 10 6 13 7 NNW 1013,3 - 0,0
16.06.2018 23:00:00 22,6 13,9 8 4 13 7 N 1012,9 - -
16.06.2018 22:00:00 22,0 13,4 11 6 13 7 N 1012,6 - 0,0
16.06.2018 21:00:00 23,2 14,5 5 3 11 6 WSW 1011,8 - 0,0
16.06.2018 20:00:00 25,2 14,0 5 3 7 4 SSE 1011,6 - 0,0
16.06.2018 19:00:00 26,1 15,5 2 1 18 10 NE 1011,4 - 0,0
16.06.2018 18:00:00 27,7 15,7 15 8 26 14 NNE 1011,4 - 0,0
16.06.2018 17:00:00 28,0 16,0 20 11 31 17 NE 1011,5 25 0,0
16.06.2018 16:00:00 28,4 16,3 18 10 32 18 NE 1011,8 - 0,0
16.06.2018 15:00:00 26,8 14,2 22 12 31 17 NE 1011,7 - 0,0
16.06.2018 14:00:00 29,1 15,2 26 14 42 23 NNE 1012,0 25 -
16.06.2018 13:00:00 28,3 17,5 30 16 43 23 NNE 1012,3 - 0,0
16.06.2018 12:00:00 27,6 17,2 32 17 44 24 NE 1012,4 - 0,0
16.06.2018 11:00:00 27,3 16,3 29 16 44 24 NNE 1012,1 25 -
16.06.2018 10:00:00 26,2 15,9 31 17 42 23 N 1011,8 - 0,0
16.06.2018 09:00:00 25,6 15,3 23 12 32 18 NNE 1011,8 - 0,0
16.06.2018 08:00:00 22,5 14,9 9 5 21 12 NNW 1011,6 - 0,0
16.06.2018 07:00:00 21,1 12,2 17 9 23 12 NNW 1011,8 - 0,0
16.06.2018 06:00:00 20,3 11,8 11 6 17 9 N 1011,8 - 0,0
16.06.2018 05:00:00 21,3 12,2 7 4 13 7 WNW 1011,6 25 0,0
16.06.2018 04:00:00 21,1 13,0 6 4 10 5 NW 1011,6 - 0,0
16.06.2018 03:00:00 21,5 12,3 5 3 14 8 NW 1011,7 - 0,0
16.06.2018 02:00:00 21,5 10,6 11 6 18 10 NNW 1011,5 - 0,0
16.06.2018 01:00:00 20,6 11,0 12 7 17 9 WNW 1011,6 - 0,0
16.06.2018 00:00:00 22,9 10,3 10 5 20 11 NW 1011,4 - 0,0
15.06.2018 23:00:00 23,3 11,4 14 8 19 11 WNW 1011,2 - 0,0
15.06.2018 22:00:00 23,0 14,0 5 3 16 9 NW 1011,0 - 0,0
15.06.2018 21:00:00 23,2 14,5 9 5 18 10 NW 1010,7 - 0,0
15.06.2018 20:00:00 25,0 14,8 10 6 35 19 NNW 1010,4 - 0,0
15.06.2018 19:00:00 26,3 15,4 24 13 39 21 NNE 1009,6 - 0,0
15.06.2018 18:00:00 27,2 14,9 24 13 42 23 NNE 1009,4 - 0,0
15.06.2018 17:00:00 27,8 16,1 28 15 44 24 NNE 1009,5 20 -
15.06.2018 16:00:00 28,6 16,5 32 18 43 23 NNE 1009,7 - 0,0
15.06.2018 15:00:00 28,2 14,8 29 16 44 24 NNE 1010,0 - 0,0
15.06.2018 14:00:00 28,9 13,9 34 18 45 24 NNE 1010,0 - 0,0
15.06.2018 13:00:00 28,5 14,7 29 16 41 22 NNE 1010,1 - 0,0
15.06.2018 12:00:00 26,9 17,9 32 17 46 25 NNE 1010,2 - 0,0
15.06.2018 11:00:00 26,6 17,1 29 15 42 23 NNE 1009,9 - 0,0
15.06.2018 10:00:00 26,2 15,9 26 14 40 22 N 1009,9 - 0,0
15.06.2018 09:00:00 25,0 14,8 17 9 28 15 N 1010,2 - 0,0
15.06.2018 08:00:00 22,4 14,8 10 6 25 14 N 1009,9 - 0,0
15.06.2018 07:00:00 20,3 14,0 13 7 26 14 N 1009,9 - 0,0
15.06.2018 06:00:00 20,6 13,1 19 10 30 16 NNW 1009,5 - 0,0
15.06.2018 05:00:00 20,8 13,2 21 11 28 15 NNW 1009,1 25 -
15.06.2018 04:00:00 20,7 13,4 18 10 26 14 NNW 1009,0 - 0,0
15.06.2018 03:00:00 21,4 13,6 20 11 29 16 N 1009,2 - 0,0
15.06.2018 02:00:00 21,9 13,3 18 10 24 13 NNW 1009,1 - 0,0
15.06.2018 01:00:00 22,1 13,2 18 10 27 14 NW 1009,1 - 0,0
15.06.2018 00:00:00 21,8 12,9 22 12 28 15 NW 1009,1 - 0,0
14.06.2018 23:00:00 21,9 13,0 16 9 23 12 NW 1008,8 - 0,0
14.06.2018 22:00:00 21,9 14,5 10 5 18 10 WNW 1008,7 - 0,0
14.06.2018 21:00:00 22,1 14,5 10 5 24 13 NW 1008,2 - 0,0
14.06.2018 20:00:00 24,6 15,2 18 10 37 20 N 1007,9 - -
14.06.2018 19:00:00 25,5 16,4 26 14 39 21 NNE 1007,4 - 0,0
14.06.2018 18:00:00 26,0 15,1 26 14 42 23 NNE 1006,9 - 0,0
14.06.2018 17:00:00 26,5 16,1 26 14 39 21 NNE 1007,0 30 0,0
14.06.2018 16:00:00 24,3 15,2 23 12 36 20 N 1007,2 - 0,0
14.06.2018 15:00:00 26,8 18,4 28 15 46 25 NNE 1007,4 - 0,0
14.06.2018 14:00:00 26,4 18,8 36 20 48 26 NNE 1007,1 30 0,0
14.06.2018 13:00:00 27,4 18,9 28 15 39 21 NNE 1007,2 - 0,0
14.06.2018 12:00:00 27,7 18,1 26 14 35 19 NNE 1006,9 - 0,0
14.06.2018 11:00:00 26,0 17,9 21 11 36 19 N 1006,8 30 0,0
14.06.2018 10:00:00 24,1 18,7 25 13 35 19 N 1006,6 - 0,0
14.06.2018 09:00:00 22,5 17,8 16 9 31 17 N 1006,6 - 0,0
14.06.2018 08:00:00 18,9 15,4 18 10 29 16 NNW 1006,2 - -
14.06.2018 07:00:00 17,9 13,8 17 9 31 17 NNW 1006,1 - 0,0
14.06.2018 06:00:00 17,1 13,6 17 9 31 17 N 1006,0 - 0,0
14.06.2018 05:00:00 16,7 14,0 20 11 27 15 NNW 1005,6 20 0,0
14.06.2018 04:00:00 16,8 15,3 17 9 32 18 N 1005,5 - 4,5
14.06.2018 03:00:00 17,2 15,2 18 10 34 18 N 1005,9 - 1,4
14.06.2018 02:00:00 18,0 14,1 21 11 34 19 N 1005,6 - 0,0
14.06.2018 01:00:00 17,5 14,2 21 11 33 18 N 1005,4 - 0,0
14.06.2018 00:00:00 17,5 14,9 18 10 31 17 N 1005,3 - 0,0
13.06.2018 23:00:00 18,3 15,5 20 11 28 15 N 1005,0 - 0,0
13.06.2018 22:00:00 18,4 14,9 12 7 20 11 NNW 1004,9 - 0,0
13.06.2018 21:00:00 18,6 16,6 11 6 24 13 N 1004,6 - 1,0
13.06.2018 20:00:00 19,7 14,9 14 8 26 14 N 1004,2 - 0,0
13.06.2018 19:00:00 20,8 15,6 20 11 39 21 N 1004,3 - 0,0
13.06.2018 18:00:00 22,9 16,7 25 13 47 26 N 1003,8 - 0,0
13.06.2018 17:00:00 24,8 15,4 20 11 31 17 N 1003,9 20 0,0
13.06.2018 16:00:00 22,9 15,2 13 7 31 17 NNW 1004,2 - 0,0
13.06.2018 15:00:00 18,2 14,9 21 12 37 20 WNW 1004,6 - 0,8
13.06.2018 14:00:00 18,5 13,1 21 11 35 19 WNW 1005,3 20 0,4
13.06.2018 13:00:00 24,3 16,6 13 7 27 15 E 1005,1 - 0,0
13.06.2018 12:00:00 23,5 16,8 9 5 24 13 SE 1005,2 - 0,0
13.06.2018 11:00:00 23,1 17,6 11 6 21 11 SSE 1005,6 20 0,0
13.06.2018 10:00:00 21,5 18,1 8 4 16 9 SSW 1005,9 - 0,0
13.06.2018 09:00:00 17,8 16,8 10 6 16 9 SW 1006,8 - 2,0
13.06.2018 08:00:00 18,9 14,4 6 3 18 10 S 1006,3 - 0,0
13.06.2018 07:00:00 18,1 14,4 14 8 19 10 SW 1006,0 - 0,0
13.06.2018 06:00:00 18,4 13,9 14 7 26 14 SSW 1006,6 - 0,0
13.06.2018 05:00:00 19,8 13,0 18 10 23 13 NW 1006,6 20 0,0
13.06.2018 04:00:00 20,1 15,5 15 8 20 11 NNW 1006,9 - 0,0
13.06.2018 03:00:00 19,8 16,4 9 5 19 10 SSW 1007,3 - 0,0
13.06.2018 02:00:00 20,5 17,3 9 5 16 8 S 1007,8 - 0,0
13.06.2018 01:00:00 19,8 16,2 12 6 14 8 SW 1008,5 - 0,0
13.06.2018 00:00:00 20,4 16,6 7 4 11 6 SW 1009,0 - 0,0
12.06.2018 23:00:00 20,2 16,8 8 4 10 6 SW 1009,2 - 0,0
12.06.2018 22:00:00 19,9 17,1 8 5 14 7 SSW 1009,1 - 0,0
12.06.2018 21:00:00 20,9 17,3 6 3 8 4 SSW 1008,6 - 0,0
12.06.2018 20:00:00 23,5 17,3 4 2 13 7 N 1008,3 - 0,0
12.06.2018 19:00:00 24,3 17,8 10 5 24 13 NNE 1008,2 - 0,0
12.06.2018 18:00:00 23,7 18,1 22 12 35 19 NNE 1008,3 - 0,0
12.06.2018 17:00:00 25,1 17,8 22 12 37 20 N 1008,2 20 -
12.06.2018 16:00:00 25,7 18,1 13 7 21 11 ENE 1008,5 - 0,0
12.06.2018 15:00:00 25,8 19,2 14 8 22 12 E 1008,6 - 0,0
12.06.2018 14:00:00 26,3 20,2 14 8 26 14 E 1008,9 20 0,0
12.06.2018 13:00:00 26,8 20,9 16 9 27 14 NE 1009,0 - 0,0

tt = Température de l'air
td = dewpoint
ff = Vitesse du vent
fx = gusts
dd = Direction du vent
ppp = reduced air pressure
vv = visibility
rr = Quantités de précipitations

stations d'obs. à proximité